Weather in Anisimovo

Russia / Altai Krai     54°01′21″N   83°37′13″E
temp.,
°C
wind,
m/s
gust,
m/s
humid.,
%
clouds,
%
prec.,
mm/h
press.,
hPa
HPBL,
m
17 october, sun
sun1701:00+2ene117065 0.0 102610
04:00+2ne117155 0.0 102610
07:00+1ene127084 0.0 102610
10:00+4sse116359 0.0 102685
13:00+8s225472 0.0 1025351
16:00+9sw125132 0.0 1025519
19:00+6ssw116515 0.0 102510
22:00+4sw11705 0.0 102510
18 october, mon
mon1801:00+3wsw227640 0.0 102611
04:00+2wsw228142 0.0 102612
07:00+1wsw22859 0.0 102716
10:00+3sw2475100 0.0 1027130
13:00+6sw346398 0.0 1027412
16:00+8sw34575 0.0 1026654
19:00+5ssw22725 0.0 102717
22:00+4ssw22765 0.0 102717
19 october, tue
tue1901:00+3ssw22795 0.0 102814
04:00+2s22805 0.0 102813
07:00+1sse228151 0.0 102816
10:00+3sse237199 0.0 1028111
13:00+7s2357100 0.0 1027311
16:00+8sse2255100 0.0 1026309
19:00+5ese2267100 0.0 102610
22:00+4ese2269100 0.0 102616
20 october, wed
wed2001:00+3ese2270100 0.0 102519
04:00+2ese22695 0.0 102415
07:00+2ese33715 0.0 102323
10:00+4se25665 0.0 1022126
13:00+9se35535 0.0 1020342
16:00+11sse34515 0.0 1018374
19:00+7sse336943 0.0 101824
22:00+5se337159 0.0 101830
21 october, thu
thu2101:00+4se337247 0.0 101637
04:00+4se336876 0.0 101633
07:00+3se346769 0.0 101553
10:00+5se396180 0.0 1015192
13:00+12s5124081 0.0 1013569
16:00+13s5103778 0.0 1012506
19:00+9sse465299 0.0 101285
22:00+7s4657100 0.0 101385